Terminal Aerodrome Forecast
Issued by NWS Lake Charles, LA

Home | Current Version | Previous Version | Text Only | Print | Product List | Glossary On
Versions: 1 2 3 4 5 6 7 8 9 10 11 12 13 14 15 16 17 18 19 20 21 22 23 24 25 26 27 28 29
000
FTUS44 KLCH 202339
TAFBPT
TAF
KBPT 202339Z 2100/2124 36008KT P6SM -SHRA OVC060
     FM210300 VRB05KT 5SM -SHRA BR OVC025
     FM210600 VRB03KT 1SM BR OVC007
     FM211500 VRB05KT 5SM BR BKN025
     FM211700 29008KT P6SM SCT250=

USA.gov is the U.S. government's official web portal to all federal, state and local government web resources and services.